• In Hungary
  • List of Countries
  • For 7 days
  • Water Temperature
  • Satellite Maps
  • Weather Map
  • News
  • Weather Widgets
  • user-avatar
    Login

    Hourly Weather Chubivka

    Today, 17 October, Wednesday

    Time Temperature Precipitation Wind Pressure Humidity
    00:00 +16°C° 0 mm 2 mps 747 mmHg 59%
    01:00 +15°C° 0 mm 2 mps 747 mmHg 62%
    02:00 +15°C° 0 mm 1 mps 747 mmHg 65%
    03:00 +14°C° 0 mm 1 mps 747 mmHg 66%
    04:00 +14°C° 0 mm 1 mps 747 mmHg 68%
    05:00 +13°C° 0 mm 2 mps 747 mmHg 70%
    06:00 +14°C° 0 mm 2 mps 747 mmHg 68%
    07:00 +15°C° 0 mm 2 mps 747 mmHg 66%
    08:00 +15°C° 0 mm 2 mps 748 mmHg 63%
    09:00 +17°C° 0 mm 3 mps 748 mmHg 56%
    10:00 +19°C° 0 mm 3 mps 748 mmHg 50%
    11:00 +21°C° 0 mm 4 mps 747 mmHg 43%
    12:00 +22°C° 0 mm 4 mps 747 mmHg 41%
    13:00 +23°C° 0 mm 4 mps 747 mmHg 38%
    14:00 +23°C° 0 mm 4 mps 747 mmHg 35%
    15:00 +22°C° 0 mm 3 mps 747 mmHg 39%
    16:00 +21°C° 0 mm 3 mps 746 mmHg 42%
    17:00 +20°C° 0 mm 2 mps 746 mmHg 46%
    18:00 +19°C° 0 mm 2 mps 746 mmHg 48%
    19:00 +18°C° 0 mm 2 mps 746 mmHg 51%
    20:00 +17°C° 0 mm 2 mps 746 mmHg 53%
    21:00 +16°C° 0 mm 2 mps 746 mmHg 55%
    22:00 +16°C° 0 mm 2 mps 746 mmHg 56%
    23:00 +15°C° 0 mm 2 mps 746 mmHg 57%

    Tomorrow, 18 October, Thursday

    Time Temperature Precipitation Wind Pressure Humidity
    00:00 +15°C° 0 mm 2 mps 746 mmHg 58%
    01:00 +14°C° 0 mm 2 mps 746 mmHg 60%
    02:00 +14°C° 0 mm 2 mps 745 mmHg 61%
    03:00 +13°C° 0 mm 2 mps 745 mmHg 63%
    04:00 +13°C° 0 mm 2 mps 745 mmHg 64%
    05:00 +13°C° 0 mm 2 mps 745 mmHg 65%
    06:00 +12°C° 0 mm 3 mps 745 mmHg 63%
    07:00 +13°C° 0 mm 3 mps 745 mmHg 62%
    08:00 +13°C° 0 mm 3 mps 745 mmHg 60%
    09:00 +16°C° 0 mm 3 mps 745 mmHg 53%
    10:00 +18°C° 0 mm 4 mps 745 mmHg 46%
    11:00 +20°C° 0 mm 4 mps 745 mmHg 39%
    12:00 +21°C° 0 mm 4 mps 744 mmHg 36%
    13:00 +22°C° 0 mm 3 mps 744 mmHg 33%
    14:00 +24°C° 0 mm 3 mps 744 mmHg 29%
    15:00 +22°C° 0 mm 3 mps 744 mmHg 32%
    16:00 +20°C° 0 mm 2 mps 743 mmHg 35%
    17:00 +19°C° 0 mm 2 mps 743 mmHg 38%
    18:00 +18°C° 0 mm 2 mps 743 mmHg 40%
    19:00 +17°C° 0 mm 2 mps 743 mmHg 42%
    20:00 +16°C° 0 mm 2 mps 743 mmHg 45%
    21:00 +16°C° 0 mm 1 mps 743 mmHg 46%
    22:00 +15°C° 0 mm 1 mps 743 mmHg 48%
    23:00 +14°C° 0 mm 1 mps 742 mmHg 50%

    Day after tomorrow, 19 October, Friday

    Time Temperature Precipitation Wind Pressure Humidity
    00:00 +14°C° 0 mm 1 mps 742 mmHg 51%
    01:00 +14°C° 0 mm 1 mps 742 mmHg 52%
    02:00 +13°C° 0 mm 1 mps 742 mmHg 53%
    03:00 +13°C° 0 mm 1 mps 742 mmHg 55%
    04:00 +13°C° 0 mm 1 mps 742 mmHg 56%
    05:00 +12°C° 0 mm 1 mps 742 mmHg 58%
    06:00 +13°C° 0 mm 1 mps 742 mmHg 56%
    07:00 +13°C° 0 mm 1 mps 742 mmHg 55%
    08:00 +14°C° 0 mm 1 mps 742 mmHg 54%
    09:00 +16°C° 0 mm 1 mps 742 mmHg 49%
    10:00 +18°C° 0 mm 1 mps 742 mmHg 44%
    11:00 +20°C° 0 mm 1 mps 742 mmHg 39%
    12:00 +20°C° 0 mm 2 mps 742 mmHg 36%
    13:00 +21°C° 0 mm 2 mps 741 mmHg 34%
    14:00 +21°C° 0 mm 2 mps 741 mmHg 31%
    15:00 +20°C° 0 mm 2 mps 741 mmHg 34%
    16:00 +19°C° 0 mm 2 mps 741 mmHg 36%
    17:00 +18°C° 0 mm 2 mps 741 mmHg 39%
    18:00 +18°C° 0 mm 2 mps 741 mmHg 41%
    19:00 +17°C° 0 mm 2 mps 741 mmHg 43%
    20:00 +16°C° 0 mm 2 mps 741 mmHg 46%
    21:00 +15°C° 0 mm 2 mps 742 mmHg 48%
    22:00 +15°C° 0 mm 2 mps 742 mmHg 50%
    23:00 +14°C° 0 mm 2 mps 742 mmHg 53%

    20 October, Saturday

    Time Temperature Precipitation Wind Pressure Humidity
    00:00 +14°C° 0 mm 2 mps 742 mmHg 55%
    01:00 +13°C° 0 mm 2 mps 742 mmHg 58%
    02:00 +13°C° 0 mm 2 mps 742 mmHg 60%
    03:00 +13°C° 0 mm 2 mps 742 mmHg 63%
    04:00 +12°C° 0 mm 2 mps 742 mmHg 66%
    05:00 +12°C° 0 mm 2 mps 742 mmHg 69%
    06:00 +11°C° 0 mm 3 mps 743 mmHg 68%
    07:00 +12°C° 0 mm 3 mps 743 mmHg 67%
    08:00 +12°C° 0 mm 3 mps 743 mmHg 67%
    09:00 +14°C° 0 mm 4 mps 743 mmHg 61%
    10:00 +17°C° 0 mm 4 mps 744 mmHg 56%
    11:00 +19°C° 0 mm 4 mps 744 mmHg 50%
    12:00 +19°C° 0 mm 4 mps 744 mmHg 48%
    13:00 +20°C° 0 mm 4 mps 744 mmHg 47%
    14:00 +20°C° 0 mm 5 mps 744 mmHg 45%
    15:00 +19°C° 0 mm 4 mps 744 mmHg 49%
    16:00 +18°C° 0 mm 4 mps 744 mmHg 52%
    17:00 +17°C° 0 mm 3 mps 744 mmHg 55%
    18:00 +15°C° 0 mm 4 mps 744 mmHg 59%
    19:00 +15°C° 0 mm 4 mps 744 mmHg 63%
    20:00 +14°C° 0 mm 4 mps 745 mmHg 67%
    21:00 +13°C° 0 mm 4 mps 745 mmHg 70%
    22:00 +13°C° 0 mm 4 mps 745 mmHg 73%
    23:00 +12°C° 0 mm 4 mps 745 mmHg 77%

    21 October, Sunday

    Time Temperature Precipitation Wind Pressure Humidity
    00:00 +12°C° 0 mm 4 mps 745 mmHg 77%
    01:00 +11°C° 0 mm 4 mps 745 mmHg 78%
    02:00 +11°C° 0 mm 4 mps 745 mmHg 79%
    03:00 +11°C° 0 mm 4 mps 745 mmHg 78%
    04:00 +10°C° 0 mm 4 mps 745 mmHg 76%
    05:00 +10°C° 0 mm 4 mps 745 mmHg 74%
    06:00 +10°C° 0 mm 4 mps 745 mmHg 72%
    07:00 +9°C° 0 mm 5 mps 745 mmHg 69%
    08:00 +10°C° 0 mm 5 mps 745 mmHg 66%
    09:00 +10°C° 0 mm 5 mps 745 mmHg 61%
    10:00 +12°C° 0 mm 4 mps 745 mmHg 57%
    11:00 +13°C° 0 mm 4 mps 745 mmHg 53%
    12:00 +13°C° 0 mm 5 mps 745 mmHg 51%
    13:00 +13°C° 0 mm 5 mps 744 mmHg 50%
    14:00 +13°C° 0 mm 5 mps 744 mmHg 48%
    15:00 +13°C° 0 mm 4 mps 744 mmHg 49%
    16:00 +12°C° 0 mm 4 mps 744 mmHg 50%
    17:00 +12°C° 0 mm 4 mps 744 mmHg 50%
    18:00 +11°C° 0 mm 4 mps 744 mmHg 52%
    19:00 +10°C° 0 mm 4 mps 744 mmHg 53%
    20:00 +10°C° 0 mm 4 mps 745 mmHg 54%
    21:00 +8°C° 0 mm 4 mps 745 mmHg 56%
    22:00 +8°C° 0 mm 4 mps 745 mmHg 58%
    23:00 +7°C° 0 mm 4 mps 745 mmHg 60%

    22 October, Monday

    Time Temperature Precipitation Wind Pressure Humidity
    00:00 +7°C° 0 mm 5 mps 745 mmHg 62%
    01:00 +7°C° 0 mm 5 mps 745 mmHg 63%
    02:00 +6°C° 0 mm 5 mps 745 mmHg 65%
    03:00 +6°C° 0 mm 5 mps 745 mmHg 67%
    04:00 +6°C° 0 mm 5 mps 745 mmHg 68%
    05:00 +5°C° 0 mm 5 mps 745 mmHg 69%
    06:00 +6°C° 0 mm 5 mps 745 mmHg 68%
    07:00 +5°C° 0 mm 6 mps 745 mmHg 67%
    08:00 +5°C° 0 mm 6 mps 745 mmHg 65%
    09:00 +8°C° 0 mm 6 mps 745 mmHg 60%
    10:00 +10°C° 0 mm 6 mps 745 mmHg 54%
    11:00 +11°C° 0 mm 6 mps 745 mmHg 48%
    12:00 +13°C° 0 mm 6 mps 745 mmHg 47%
    13:00 +14°C° 0 mm 6 mps 745 mmHg 45%
    14:00 +14°C° 0 mm 6 mps 744 mmHg 44%
    15:00 +14°C° 0 mm 5 mps 744 mmHg 46%
    16:00 +13°C° 0 mm 5 mps 744 mmHg 48%
    17:00 +12°C° 0 mm 4 mps 744 mmHg 50%
    18:00 +12°C° 0 mm 5 mps 744 mmHg 51%
    19:00 +10°C° 0 mm 5 mps 744 mmHg 52%
    20:00 +10°C° 0 mm 5 mps 744 mmHg 53%
    21:00 +10°C° 0 mm 5 mps 743 mmHg 55%
    22:00 +9°C° 0 mm 5 mps 743 mmHg 56%
    23:00 +9°C° 0 mm 5 mps 743 mmHg 57%
    Show more